Theta_e
289 290 290 290 290 289 289 289 290 291 291 291 290 291 291 292 292 292 293 293 294 294 294 294 294 294 295 295 294 294 294 294 294 293 293 292 292 292 291 291 290 290 290 290 291 290 290 289 289 290 290 289 289 289 289 289 289 289 289 289 289 290 290 289 287 286 283 287 287 286 286 286 285 285 284 284 283 283 285 285 285 283 283 283 283
288 289 289 289 288 288 288 289 289 289 289 290 289 290 290 291 291 292 291 292 292 293 293 293 293 293 293 294 294 294 294 294 293 293 292 291 291 292 291 290 290 289 290 289 289 290 289 289 289 289 289 289 288 288 288 288 288 288 288 288 288 288 289 288 287 287 282 284 284 285 284 286 283 285 284 283 283 282 282 282 283 282 282 282 282
288 288 289 288 288 288 288 288 288 288 288 288 287 288 289 289 291 290 291 291 291 292 292 292 292 292 292 292 293 293 293 293 293 293 292 291 291 290 291 290 289 289 288 289 289 289 289 288 288 288 289 288 288 288 288 288 288 287 287 287 287 287 288 288 287 286 284 281 284 283 283 284 283 283 284 284 284 283 281 281 281 282 282 282 282
288 288 288 288 288 288 287 287 287 287 286 287 287 288 288 289 289 289 290 290 290 291 291 291 291 291 291 291 291 291 292 292 292 292 292 291 290 290 290 289 289 289 289 288 288 288 288 287 288 288 288 287 287 287 287 287 287 287 286 286 286 286 287 287 287 286 285 281 282 282 283 282 282 283 284 284 283 282 282 282 282 282 282 282 282
288 288 287 287 287 287 287 287 286 286 286 287 287 287 288 288 288 288 288 288 289 289 290 291 290 290 291 291 291 291 291 291 291 291 292 291 290 290 290 289 289 289 289 288 288 288 288 287 287 287 287 286 286 286 286 286 286 286 286 286 286 286 286 286 285 285 284 283 281 282 282 282 282 282 283 282 281 281 281 281 281 281 281 282 282
287 287 287 287 287 287 286 286 286 286 286 286 286 287 287 287 287 287 288 287 288 288 288 289 289 289 289 290 290 290 290 290 290 290 290 290 290 290 290 289 289 288 288 288 288 288 288 287 287 287 287 286 286 286 286 285 285 285 285 285 285 285 285 284 284 284 284 283 281 280 281 280 280 280 282 281 280 279 279 280 280 281 281 280 281
287 286 287 286 286 286 286 286 286 286 286 286 286 287 287 286 286 286 287 287 287 287 288 288 288 288 288 289 289 289 289 289 289 289 289 289 289 289 289 288 288 288 288 288 288 288 288 288 287 287 286 286 286 286 285 285 285 285 285 284 284 284 284 283 283 283 283 282 281 280 279 280 280 278 280 281 280 280 278 278 278 280 280 280 280
286 286 286 286 285 286 286 286 286 286 286 286 286 286 286 286 286 286 286 286 286 286 286 287 287 288 288 288 288 289 289 288 288 288 288 288 287 287 287 287 287 287 287 288 287 287 287 287 287 287 287 287 286 286 286 285 285 284 285 284 284 283 283 283 282 282 282 282 281 279 279 279 279 280 280 279 278 279 279 279 277 278 278 280 280
286 286 286 285 285 286 286 286 287 286 286 285 285 285 285 285 285 286 286 286 286 286 286 286 286 286 287 287 288 288 289 289 289 288 287 287 287 287 287 286 286 286 286 286 287 287 287 287 286 286 286 286 286 287 287 286 285 284 284 284 283 283 283 283 282 282 282 282 281 280 278 278 278 278 277 277 277 277 279 279 279 280 280 279 280
285 285 285 285 285 286 286 286 286 286 286 285 285 285 285 285 284 284 284 285 285 285 285 286 286 285 285 286 286 287 288 289 288 289 289 288 287 287 287 286 286 286 286 286 286 286 286 286 287 286 285 285 286 286 287 287 287 285 284 284 283 283 282 282 282 282 282 281 281 280 278 278 278 278 277 277 278 279 279 279 278 280 280 279 280
285 285 285 285 285 285 285 285 285 285 285 285 285 285 285 284 284 284 284 284 284 285 285 285 285 285 285 285 285 286 287 287 288 290 290 291 289 288 287 286 286 286 286 285 285 286 286 286 286 286 285 285 285 286 287 287 287 287 287 286 285 284 282 282 282 282 281 281 282 281 280 279 278 279 278 278 278 278 278 279 279 280 278 277 276
285 285 285 285 285 285 285 285 284 284 285 284 284 284 284 283 283 283 283 284 284 284 284 284 284 285 285 285 285 285 285 287 289 289 290 290 290 288 287 286 286 286 286 286 286 286 286 286 286 286 286 285 285 285 285 286 287 287 287 287 287 287 287 284 282 282 281 281 281 281 281 280 279 279 278 279 278 278 279 279 278 278 278 278 278
285 285 284 284 284 284 284 284 283 283 283 284 284 283 283 282 282 282 282 283 283 283 283 284 284 284 284 284 284 285 285 287 288 288 289 289 289 289 287 286 286 286 286 286 286 285 285 285 285 286 286 285 285 284 284 284 286 286 286 287 287 287 288 288 287 285 284 282 282 281 281 281 280 279 280 279 280 278 279 278 278 278 279 278 278
285 284 284 284 284 284 284 283 282 282 283 283 283 282 282 281 281 282 282 282 282 283 283 283 283 283 283 283 283 284 284 286 287 288 288 289 289 289 287 286 286 286 286 286 286 285 285 285 285 285 285 284 285 284 284 283 283 283 284 284 284 285 286 287 287 286 286 283 283 282 283 282 281 281 281 282 280 279 279 278 279 279 279 279 280
284 283 283 283 283 283 283 283 283 283 283 283 282 282 281 281 280 280 281 281 281 281 282 282 282 282 282 283 282 283 283 286 286 287 287 288 288 288 287 286 286 286 286 286 286 286 286 285 285 285 285 284 284 284 283 283 282 282 282 282 283 283 283 283 284 284 284 284 283 283 283 283 282 282 281 282 281 281 281 280 280 280 280 279 279
282 283 283 282 283 283 283 282 282 282 282 282 282 281 281 280 280 280 280 280 281 281 281 281 281 281 281 281 281 281 283 285 286 286 286 287 288 286 286 286 286 286 286 286 286 286 286 286 285 285 285 285 285 287 286 283 282 281 281 281 282 282 282 284 285 286 284 284 284 283 283 283 285 282 282 282 282 282 282 281 280 279 277 276 275
281 281 282 282 282 282 282 282 281 281 281 281 280 280 280 279 279 280 279 279 279 279 279 280 280 280 280 280 280 280 281 284 285 286 286 287 286 285 285 285 285 285 286 286 287 287 287 286 286 285 285 284 286 287 288 286 282 281 280 280 280 281 281 283 285 286 287 287 286 286 286 286 287 287 286 286 283 282 280 278 276 278 276 274 274
279 280 280 280 280 281 281 281 280 280 279 279 279 280 279 279 278 279 278 277 277 278 279 278 279 279 279 280 281 280 281 282 284 285 285 285 285 283 284 284 284 284 285 286 286 287 287 286 286 285 285 284 286 287 287 286 283 281 280 279 279 279 280 282 282 283 286 285 285 285 285 285 286 287 287 287 286 284 279 276 277 277 275 276 274
277 277 277 277 278 278 278 278 278 277 277 277 278 277 277 277 277 277 277 277 277 277 277 277 277 278 279 279 280 280 279 281 283 284 284 285 284 283 283 283 283 283 284 284 286 286 286 286 286 286 285 285 287 287 287 286 282 282 281 280 279 279 280 281 280 280 281 281 281 281 282 284 283 283 283 286 285 283 280 279 278 277 275 276 275
274 274 274 275 275 275 275 275 275 275 274 275 275 275 276 275 275 275 275 275 275 275 275 275 274 275 276 276 277 278 278 278 280 282 283 284 285 283 283 282 282 282 283 283 284 285 285 286 287 288 288 288 287 287 287 287 283 281 281 280 279 278 281 280 279 280 280 280 279 280 279 281 281 281 282 283 283 281 280 279 278 277 276 276 275
272 271 272 272 272 272 272 272 271 271 271 272 273 273 273 273 273 273 273 273 273 273 273 273 273 273 274 274 274 275 276 276 278 281 282 283 284 284 282 281 281 282 282 283 283 283 284 285 286 287 288 288 288 287 287 287 286 282 281 280 280 281 282 279 279 281 279 279 279 279 279 280 280 280 280 281 281 280 279 279 278 278 277 276 274
268 268 267 268 268 267 266 267 267 267 268 269 269 270 271 272 271 271 272 271 271 270 270 271 271 271 271 272 272 273 275 277 277 280 282 283 284 284 282 281 282 282 281 282 282 283 283 284 285 286 287 287 287 288 287 286 286 284 282 284 284 284 282 280 279 279 279 278 278 278 278 278 278 278 279 280 279 279 278 278 278 277 278 277 276
265 264 264 264 264 263 264 264 264 265 265 266 266 266 267 268 269 269 269 269 269 268 269 269 269 269 270 271 272 273 274 276 279 279 281 283 283 284 284 283 284 283 281 280 281 282 283 284 285 286 286 286 287 287 287 286 286 285 286 286 285 284 283 280 279 278 278 278 277 276 277 277 277 277 278 278 278 278 278 277 276 276 276 275 275
262 262 261 261 261 261 261 262 262 262 263 263 263 263 264 265 266 267 267 267 267 267 267 268 268 268 268 269 271 272 273 275 277 279 279 281 283 284 284 284 285 282 282 281 282 282 283 283 284 286 286 286 286 287 287 286 284 286 286 286 285 284 282 280 278 278 277 277 276 276 276 277 277 277 277 275 276 277 275 274 274 275 274 273 273
260 260 260 260 260 260 260 260 261 261 261 262 261 262 262 263 263 264 265 265 265 265 266 267 266 267 267 267 269 270 272 273 274 277 279 280 282 283 284 284 284 285 282 282 283 282 284 285 285 286 286 286 285 286 286 286 286 285 285 285 284 282 281 279 278 277 276 276 276 276 276 276 277 277 276 274 274 274 273 273 273 273 273 272 272
259 259 259 259 259 260 259 259 260 260 260 261 261 261 261 262 262 262 263 263 264 264 264 265 265 265 266 266 267 268 270 271 272 274 277 278 280 281 283 283 283 284 283 282 284 284 285 285 285 285 285 285 284 283 282 283 284 285 284 284 283 282 280 279 278 276 276 276 276 275 276 276 276 276 275 274 273 271 271 270 270 269 270 268 267
258 258 258 259 259 259 259 259 259 260 260 261 261 261 261 261 261 261 262 262 263 263 263 264 264 265 265 266 267 268 269 271 272 273 275 276 277 279 280 280 282 283 282 282 282 282 283 283 283 284 284 284 284 283 283 283 283 283 283 283 282 282 281 279 278 277 276 276 276 276 276 275 275 273 272 272 271 271 271 270 269 268 268 268 267
258 258 258 258 258 258 258 259 259 259 260 260 260 260 261 261 260 260 260 261 261 261 262 262 263 263 264 265 266 267 268 269 271 273 275 276 277 279 279 279 278 279 279 279 280 280 281 282 282 282 283 282 282 281 281 281 281 281 281 281 281 282 281 281 280 278 277 277 277 276 274 273 272 272 272 271 270 270 270 269 268 267 267 267 265
258 257 258 258 257 258 258 259 259 259 259 259 260 260 260 260 260 260 261 262 261 261 261 261 262 263 263 263 264 264 265 266 269 274 274 276 276 276 276 277 278 278 279 281 279 279 279 279 279 280 280 279 279 279 279 279 279 280 280 280 280 281 280 279 277 277 277 276 275 274 272 272 271 271 270 270 269 269 270 268 268 267 266 267 265
257 256 257 257 257 257 258 258 258 258 258 258 259 259 262 265 264 262 261 265 268 269 269 264 264 264 264 265 266 265 265 267 272 274 275 276 278 279 279 280 281 280 280 281 280 278 277 277 277 278 278 278 277 277 277 278 278 278 279 280 280 280 279 278 277 277 276 276 275 273 271 271 270 270 269 269 268 267 268 268 266 266 265 265 265
256 256 256 256 257 257 257 257 257 258 258 258 258 258 258 260 265 267 267 267 268 269 270 270 271 271 267 265 267 272 273 273 274 274 275 275 276 276 277 278 278 279 280 279 278 277 276 276 276 277 278 278 277 277 277 277 277 277 277 278 279 279 278 277 276 276 275 275 274 272 271 270 269 269 268 267 266 266 266 266 266 266 265 265 264
255 255 256 256 256 256 256 257 257 257 257 258 258 258 258 257 259 264 267 267 268 268 269 270 270 270 271 270 268 267 270 272 273 273 274 275 275 276 276 277 278 279 279 279 276 276 277 276 276 277 277 277 277 277 277 277 277 277 277 277 277 278 277 275 276 276 274 273 272 270 269 269 269 268 268 266 265 265 265 264 264 265 265 265 265
255 255 255 256 256 256 256 256 256 257 257 257 257 258 257 257 257 257 260 265 267 268 268 269 269 270 270 271 271 271 271 271 273 273 274 275 275 276 277 277 278 279 279 276 275 276 277 277 276 277 277 276 277 277 277 277 277 277 277 277 276 276 276 276 276 274 273 272 271 270 269 268 268 267 267 266 265 264 264 264 264 264 265 264 265
256 256 256 256 256 256 256 256 256 257 257 257 257 257 258 258 257 257 257 258 259 263 266 267 268 268 269 269 269 270 271 271 272 273 273 274 275 276 276 275 278 279 278 275 275 275 277 277 277 277 277 277 277 277 277 277 277 277 277 277 276 274 274 274 273 272 272 271 270 269 268 268 267 266 265 265 265 265 264 264 264 263 264 264 264
256 256 257 257 256 256 256 257 257 257 257 257 257 257 257 258 258 258 257 257 257 257 258 260 264 267 265 266 268 270 271 272 272 273 274 274 275 276 276 273 273 274 275 276 276 277 277 277 277 277 277 277 277 277 277 277 277 276 276 275 273 272 271 271 271 271 270 270 269 268 267 267 266 266 265 265 264 264 263 263 263 264 264 264 264
256 256 256 257 257 257 257 257 257 257 257 257 258 258 258 258 258 258 258 258 258 258 259 260 261 265 267 268 269 270 271 272 272 273 274 274 275 276 271 271 271 273 274 275 276 277 278 278 278 277 277 277 277 277 277 277 276 276 275 273 271 270 269 270 270 269 269 268 268 268 267 266 266 266 266 265 264 264 264 264 264 264 264 264 264
256 256 256 257 257 257 257 257 257 257 259 258 258 258 258 258 258 258 258 258 258 258 258 259 260 260 264 264 265 268 270 271 272 273 273 274 275 274 272 272 271 273 274 275 276 277 278 278 278 277 277 277 277 277 277 276 275 274 273 272 271 270 269 269 269 268 267 267 267 267 266 266 265 265 265 264 264 264 263 264 264 264 264 264 264
257 257 257 257 257 257 258 258 258 259 259 259 259 259 258 258 258 258 258 258 258 259 259 259 261 260 260 262 266 266 266 270 271 271 272 273 272 272 272 273 273 273 273 275 277 277 278 278 278 277 277 277 277 276 276 275 273 272 271 270 269 269 270 270 269 268 267 267 266 266 265 265 265 265 265 264 263 263 263 263 263 263 264 264 264
257 258 258 258 260 258 258 258 259 259 258 259 259 259 258 258 258 258 258 259 259 259 259 259 260 260 261 262 263 264 265 264 264 266 268 269 271 272 272 272 273 273 274 275 276 277 278 278 277 277 277 277 276 276 274 273 272 270 269 268 267 268 268 267 267 266 266 266 265 265 265 264 264 264 264 263 263 263 263 263 263 263 263 263 263
256 257 257 258 258 258 258 258 259 259 259 259 259 259 259 259 259 259 259 258 258 259 259 259 259 260 261 262 262 263 262 263 264 265 266 267 269 272 273 273 274 274 275 276 277 278 278 278 277 276 277 276 275 274 273 271 270 269 268 267 267 267 267 267 266 266 265 265 265 264 264 264 264 264 264 263 263 263 263 263 263 263 263 263 263
256 256 257 258 258 258 259 259 259 259 259 259 259 259 259 259 259 259 259 259 259 259 259 259 260 261 262 263 267 268 265 265 266 266 267 268 270 271 272 273 274 275 276 277 278 277 277 275 274 274 274 273 273 271 270 270 268 268 267 266 266 266 266 266 266 265 265 264 264 264 264 264 263 263 262 263 265 264 263 263 263 263 264 264 264
256 256 256 257 258 258 259 259 259 260 260 260 260 259 259 260 260 259 259 259 259 259 259 260 260 261 263 266 268 270 268 267 268 268 270 272 272 272 273 274 275 275 277 276 276 274 273 273 273 272 272 271 270 270 269 269 268 268 267 266 266 265 265 264 265 264 264 264 264 264 263 263 263 263 264 265 263 263 263 263 263 263 263 263 263
256 256 257 258 258 258 259 259 260 260 260 260 261 261 261 261 260 260 260 260 260 260 260 260 261 262 263 266 267 269 267 268 269 271 271 271 272 272 272 272 272 273 273 274 273 273 273 272 271 271 271 271 270 270 269 269 268 267 267 266 265 264 264 264 264 264 264 263 263 262 263 263 263 263 263 262 263 263 263 263 263 263 263 263 263
256 257 257 257 258 258 259 259 259 260 260 260 261 261 262 261 261 261 260 260 260 260 261 261 262 262 263 265 266 267 268 269 269 269 269 269 269 269 269 270 270 270 270 271 271 271 271 271 270 270 270 271 270 269 269 268 267 267 266 265 264 264 264 264 263 263 263 262 262 262 262 262 263 263 262 262 262 262 262 262 262 262 262 262 263
256 256 256 257 257 258 258 259 259 259 260 260 260 261 262 262 262 262 262 261 261 262 262 262 263 264 264 265 267 267 266 266 266 266 266 266 266 267 267 268 268 268 269 269 270 270 270 270 270 269 268 268 267 267 267 267 267 267 266 266 264 264 264 264 264 264 263 262 262 261 261 262 262 262 262 262 262 262 262 262 262 262 262 262 262
255 256 256 256 257 257 257 258 259 258 259 259 259 259 260 261 261 262 262 262 263 263 263 264 264 265 264 263 262 262 262 262 263 263 263 263 262 263 263 264 265 265 266 266 267 267 267 267 267 266 265 265 265 266 267 267 267 267 267 266 265 265 265 264 264 263 263 263 262 262 262 261 261 262 262 262 262 262 262 262 262 262 262 263 263
255 255 256 256 256 256 257 257 257 257 258 258 258 259 259 260 260 261 261 261 261 262 261 261 261 261 261 261 260 259 260 260 260 261 261 261 261 261 262 262 263 263 263 263 263 263 264 264 264 264 264 264 265 265 265 266 266 265 265 265 264 264 264 264 264 263 263 263 263 262 262 261 261 261 261 261 261 262 262 262 262 262 262 263 262
255 255 255 255 256 255 256 256 256 257 257 257 257 258 258 259 259 259 259 260 260 260 260 260 260 260 259 259 259 258 258 259 259 260 260 260 260 260 260 260 260 260 261 261 262 262 262 262 262 262 262 262 262 262 263 263 263 263 263 263 263 263 263 263 263 263 263 263 263 262 262 261 261 261 261 261 261 262 261 261 262 262 262 262 263
254 254 254 255 255 255 255 255 255 255 255 256 256 257 257 257 258 258 258 258 258 259 259 259 258 259 258 258 258 258 258 258 258 259 259 259 259 259 259 259 259 259 258 259 259 259 260 260 260 260 260 261 261 261 260 260 260 260 261 261 262 263 263 262 262 262 262 262 262 262 262 261 261 261 261 261 261 262 262 262 262 262 262 263 262
254 254 254 254 254 254 255 255 255 255 255 255 255 255 256 256 256 257 257 257 257 257 258 258 258 258 257 257 257 257 257 257 257 257 257 257 258 258 258 258 257 257 257 257 257 258 258 259 259 259 259 259 259 259 259 259 259 259 260 261 262 262 262 262 262 262 261 261 262 262 261 261 261 261 261 261 261 261 261 261 262 262 262 262 262
254 254 254 254 254 254 254 254 254 254 254 254 254 255 255 255 255 256 256 256 256 256 257 257 257 257 257 257 257 257 257 257 257 257 257 257 257 257 257 257 257 257 257 257 257 257 258 258 258 258 257 257 257 257 258 259 259 260 261 261 261 261 260 260 260 261 261 261 261 261 261 260 260 260 260 260 260 260 261 261 261 262 262 262 262
Wind_Speed
7 7 8 8 9 9 10 9 10 9 10 10 9 9 9 8 7 8 7 6 6 6 6 5 6 6 7 7 7 7 7 8 7 8 9 9 9 10 9 10 11 11 11 12 11 11 13 14 15 14 12 12 12 10 11 12 11 10 9 9 10 9 9 10 11 5 2 2 5 6 9 10 8 8 9 7 7 8 7 4 5 4 4 3 3
5 6 6 6 6 7 8 8 8 8 8 8 9 9 9 9 9 9 9 8 7 7 7 6 5 6 6 7 8 8 8 8 8 8 9 9 9 7 8 10 11 12 11 13 12 10 12 15 16 14 12 14 14 13 12 12 11 11 11 11 11 10 10 9 10 9 6 2 3 5 7 8 8 8 11 11 8 7 8 5 4 4 4 4 4
4 3 4 5 6 5 5 5 6 7 7 6 7 7 7 6 7 7 8 8 7 7 7 7 7 6 7 7 8 8 8 8 7 8 9 9 10 9 9 10 12 12 13 14 14 12 13 15 16 14 10 13 15 15 13 13 12 13 15 12 13 13 11 11 10 11 8 7 5 7 7 8 9 10 9 8 7 7 8 7 6 4 4 4 4
5 5 6 6 6 6 6 6 6 6 7 6 7 7 8 8 8 8 7 7 8 8 7 7 6 6 6 7 8 8 8 7 8 8 9 10 10 10 9 10 12 13 13 13 13 13 14 14 15 14 13 15 16 14 14 13 13 13 14 13 13 13 11 10 12 11 7 8 7 8 7 9 6 5 6 6 8 7 7 5 5 5 5 5 5
7 7 7 7 7 6 7 6 6 6 6 6 7 7 7 7 8 9 9 10 10 9 8 7 7 7 6 7 8 8 8 8 8 8 9 8 10 10 10 10 11 12 13 13 12 13 14 15 14 13 13 15 16 15 13 15 13 13 14 14 13 12 10 10 12 10 8 9 7 5 6 5 4 6 8 9 7 6 5 6 6 6 5 5 5
8 9 9 8 8 7 7 6 7 7 6 6 6 6 6 5 6 5 6 8 8 8 9 8 7 8 8 8 9 9 9 8 8 8 9 9 9 10 10 10 11 11 12 13 13 13 14 14 13 13 14 15 16 15 13 15 14 13 15 14 12 11 12 12 11 11 11 8 10 7 7 9 7 6 9 9 9 8 6 5 4 5 6 6 6
7 7 8 9 9 9 9 8 7 7 6 6 7 6 6 6 7 6 6 6 7 7 7 8 7 7 8 8 8 9 9 8 9 9 9 9 9 10 10 11 11 11 11 12 13 14 14 14 14 13 15 15 15 14 14 15 14 17 16 15 13 12 13 12 11 12 12 10 7 9 9 8 9 9 8 8 7 7 8 7 6 7 6 7 6
6 7 7 8 8 8 8 8 9 8 8 8 8 8 7 7 7 7 7 6 6 6 7 7 7 7 8 8 7 7 8 8 8 9 9 9 10 10 11 11 11 11 11 12 13 13 13 14 14 15 15 15 14 14 14 14 13 15 14 13 12 13 13 12 11 12 12 11 10 9 9 10 8 5 6 8 7 6 8 8 8 9 8 8 8
6 7 7 7 7 7 8 7 7 8 8 9 10 10 10 9 9 9 9 9 8 8 8 8 8 8 7 7 8 7 7 7 6 7 8 9 9 10 11 12 12 13 13 13 13 14 14 14 14 14 16 18 21 19 17 15 12 13 14 12 13 13 12 11 12 12 11 11 9 8 9 9 10 11 10 10 12 14 11 10 8 7 6 6 7
6 6 7 7 7 7 7 7 7 7 7 9 9 9 9 9 10 9 10 10 10 10 10 10 9 9 8 8 7 6 6 6 8 13 12 9 9 9 9 10 11 11 12 13 13 13 14 13 13 18 18 20 22 22 22 21 21 17 13 11 12 12 13 13 13 13 13 13 13 12 11 12 13 15 11 11 11 7 8 9 9 8 7 7 4
7 7 8 8 8 8 8 8 8 9 8 8 6 7 9 7 7 8 9 8 10 10 9 9 9 9 10 9 8 7 6 6 11 12 14 17 13 11 11 11 11 12 12 13 13 13 13 13 12 14 16 18 18 21 21 23 23 24 22 18 16 15 14 15 15 14 14 14 13 13 16 17 15 14 14 14 12 14 12 12 11 8 9 10 9
7 7 8 8 8 9 8 9 9 9 9 8 8 7 7 8 8 8 8 9 9 8 10 11 10 9 9 9 9 8 7 9 13 14 15 16 15 12 10 10 10 11 12 13 13 13 13 13 12 10 11 13 12 13 18 23 24 23 23 22 22 23 22 18 16 13 14 15 14 16 15 16 16 14 12 12 13 11 11 12 13 13 11 10 9
8 8 8 9 9 9 10 9 9 10 9 9 8 8 8 9 9 10 10 10 10 11 11 11 10 10 10 10 9 9 9 10 13 15 16 17 18 15 10 11 11 11 12 13 13 13 12 12 12 11 10 15 13 12 12 14 19 23 23 24 25 27 26 28 25 18 13 14 15 17 17 16 14 15 16 16 14 15 13 12 12 12 12 11 11
10 11 12 12 14 14 13 11 13 13 12 12 11 12 12 12 10 8 9 9 10 10 10 11 11 11 11 11 11 11 11 11 14 14 15 17 18 16 10 12 11 12 13 13 12 13 13 13 12 12 10 11 11 13 12 12 11 13 15 17 17 21 25 27 27 28 21 17 17 18 16 13 15 15 14 15 17 16 14 13 13 12 13 14 10
12 13 13 13 12 11 12 12 12 12 12 13 12 12 13 13 14 13 11 11 12 11 11 10 10 11 11 11 10 12 12 16 16 16 17 18 18 15 10 11 11 12 13 13 13 14 14 13 14 15 13 11 10 13 12 12 10 11 13 15 16 16 17 18 20 18 17 15 15 16 12 12 15 12 12 14 17 15 16 17 18 15 9 6 6
13 13 13 12 12 13 12 13 13 12 12 12 12 12 12 12 13 12 12 11 12 12 12 12 12 12 12 12 12 13 13 17 18 17 18 18 20 10 9 10 11 12 13 14 13 13 13 14 14 15 15 15 14 19 16 12 11 13 16 15 14 14 15 18 16 16 17 17 15 14 10 8 11 11 12 13 11 8 6 7 7 8 10 9 9
13 14 12 13 13 13 13 13 13 12 12 13 14 14 13 14 13 11 12 12 13 13 13 13 12 13 14 14 13 14 13 16 18 18 18 18 13 8 9 9 10 12 13 13 12 13 13 13 14 14 15 15 16 17 18 20 13 15 16 15 14 14 15 15 14 16 13 8 10 10 11 11 14 16 18 20 15 11 10 10 12 11 11 11 9
13 13 13 12 13 14 12 11 12 13 15 16 16 15 13 12 13 11 12 13 14 13 12 13 13 14 14 15 13 13 14 15 20 19 21 21 16 11 9 10 10 12 12 13 12 12 14 19 16 14 14 14 14 17 21 20 16 16 15 15 16 16 16 13 8 10 14 10 12 12 13 14 16 18 20 22 22 18 15 17 14 12 14 14 13
13 13 13 14 14 12 12 13 13 15 16 17 16 16 16 16 15 13 13 12 14 14 14 13 14 13 13 14 18 18 15 16 22 24 24 23 17 10 10 9 11 11 12 12 12 12 13 14 19 18 16 16 18 17 21 19 14 15 15 14 16 18 17 12 10 11 10 11 11 11 11 14 14 12 14 23 22 19 16 15 13 15 16 12 9
13 14 15 15 12 13 13 14 14 14 16 17 17 16 16 16 16 14 13 12 13 13 13 13 16 15 15 15 14 14 15 16 19 27 26 25 24 14 9 9 11 12 12 12 12 11 12 12 13 19 23 23 22 21 22 24 16 13 13 14 16 20 10 8 11 13 13 13 13 14 15 14 12 11 11 13 15 16 11 12 13 14 13 12 11
13 14 14 15 14 14 14 14 16 18 18 18 18 17 15 16 17 16 16 15 14 15 16 15 15 16 15 16 15 16 16 18 20 28 28 27 26 20 11 12 12 12 12 12 11 12 12 12 11 15 21 23 24 24 23 25 23 15 15 15 17 13 9 10 15 19 14 14 13 13 13 12 13 13 14 14 13 13 10 10 11 12 12 12 11
14 13 14 15 15 16 17 17 17 16 17 18 18 18 17 17 16 17 16 16 18 19 18 16 16 17 17 17 18 19 20 25 21 26 30 29 28 27 16 13 14 13 13 12 12 12 13 12 10 13 18 20 23 23 25 25 27 17 16 20 20 18 14 12 10 11 13 13 12 12 12 13 13 13 13 13 12 12 11 10 7 10 8 9 12
13 13 13 14 14 14 15 17 16 15 15 17 18 19 18 18 18 18 18 18 19 21 21 19 19 19 18 15 16 18 18 18 26 22 27 30 30 29 28 19 21 17 13 14 13 13 12 13 13 17 18 20 23 24 24 26 23 17 23 24 22 23 18 11 11 12 12 13 12 13 14 14 14 14 13 12 11 12 10 7 7 8 7 5 5
13 14 13 14 15 15 14 16 15 14 15 16 16 18 19 18 18 17 17 16 17 18 17 17 17 18 19 19 17 17 18 17 22 29 26 33 32 32 31 30 27 17 14 13 12 13 13 13 13 18 18 20 24 25 25 23 17 24 28 28 26 22 14 12 12 13 13 13 14 14 15 14 12 12 11 8 9 10 8 8 9 10 8 7 7
15 16 16 15 15 14 14 13 14 15 15 14 15 16 17 16 16 16 16 17 18 19 18 17 17 17 18 18 19 17 17 18 19 22 30 30 32 30 31 32 30 28 18 13 14 14 16 22 22 17 16 21 24 24 23 26 30 27 27 28 25 14 13 13 13 12 14 16 16 14 12 13 13 10 7 9 11 10 9 7 7 7 7 7 7
19 18 18 16 15 15 17 18 15 14 14 13 13 14 15 15 15 15 15 15 16 17 18 17 18 18 18 19 18 17 17 17 19 19 20 21 23 29 30 29 28 26 23 16 19 24 25 25 28 27 20 18 15 14 13 14 24 30 30 26 15 13 13 12 12 13 15 15 13 14 12 10 9 8 11 12 12 11 10 10 10 8 9 9 9
19 19 17 16 16 16 17 14 14 14 13 12 12 13 13 13 14 15 15 15 15 16 17 17 17 16 17 17 17 17 17 16 16 16 17 17 16 16 16 17 22 23 18 15 17 17 19 20 16 17 14 18 20 18 16 16 14 16 15 14 13 12 12 12 13 13 12 11 11 11 10 9 8 10 12 13 11 8 10 11 11 9 9 8 9
19 18 18 18 16 15 15 19 19 14 14 12 13 13 12 13 14 15 14 15 15 16 16 16 17 16 17 17 17 16 16 16 16 15 15 14 13 12 10 9 10 9 11 11 11 13 12 12 16 13 12 13 14 13 13 12 12 12 12 12 12 12 13 16 15 12 12 12 10 9 8 10 13 12 11 10 10 9 9 10 11 10 9 9 8
17 19 18 16 16 15 15 14 14 14 14 14 13 13 13 14 14 16 15 14 16 17 17 18 18 16 17 18 18 19 18 18 16 18 20 23 19 14 11 9 7 8 11 15 12 9 9 10 10 11 11 11 11 12 12 11 12 12 13 12 12 12 11 10 13 13 12 10 10 11 11 10 11 11 12 11 10 10 10 10 9 11 9 8 9
18 17 15 15 16 15 14 14 14 14 15 15 15 15 18 24 20 18 18 23 31 32 28 21 18 17 18 17 16 19 18 17 24 30 29 29 29 30 27 26 24 16 14 20 15 10 10 10 11 12 11 10 10 9 9 10 12 12 11 13 13 11 11 11 11 11 11 11 11 10 11 11 11 11 12 11 9 8 9 11 10 10 11 10 9
17 16 16 14 15 16 15 15 15 14 14 15 15 16 16 14 22 28 30 29 29 32 32 34 36 34 26 21 21 34 37 38 38 37 37 37 37 37 37 36 35 33 31 21 14 11 11 11 12 12 12 11 10 11 11 12 13 12 11 11 11 12 11 10 10 10 11 11 10 10 10 11 11 11 12 11 10 10 8 7 8 9 9 9 6
17 16 16 16 16 16 15 15 15 15 14 14 15 15 15 16 15 20 26 28 29 29 30 32 32 31 33 31 25 19 26 32 36 34 34 35 34 35 35 36 35 35 33 32 20 15 12 12 12 12 11 12 12 12 11 12 12 12 10 10 11 11 11 10 10 11 11 11 11 11 10 10 11 11 11 11 11 11 10 10 9 9 7 8 6
18 18 17 18 16 16 15 14 14 14 15 15 14 14 15 15 16 15 15 22 26 28 29 30 31 31 32 32 34 32 30 31 35 35 35 35 34 33 34 35 34 33 32 22 17 17 14 13 12 11 11 11 13 12 11 12 11 11 11 11 11 10 10 10 11 11 11 11 11 11 11 11 10 10 10 11 12 11 9 9 7 7 9 9 9
16 17 17 17 17 16 15 14 14 14 14 14 14 14 14 15 15 16 16 15 15 18 23 26 27 29 30 31 31 31 30 30 30 31 32 32 32 31 29 25 32 34 28 18 15 16 15 14 13 13 12 11 11 12 11 11 10 10 10 10 8 7 8 9 11 11 10 11 11 11 11 11 11 12 11 10 10 10 11 10 8 7 7 5 6
15 19 26 21 15 15 14 14 14 13 14 14 14 14 15 15 15 15 15 15 15 15 14 15 19 24 21 22 25 29 29 29 30 29 29 28 29 30 31 20 18 16 17 17 17 16 15 13 12 12 11 10 10 11 12 11 10 9 9 8 7 8 8 9 10 10 11 11 11 11 11 12 11 11 13 12 11 11 9 8 7 7 8 7 7
14 14 14 16 14 14 14 14 14 14 14 14 14 14 15 15 15 14 14 15 15 15 15 14 13 18 28 27 29 28 29 28 27 27 26 26 24 25 17 13 13 12 12 13 14 16 15 13 11 11 10 10 9 9 10 10 9 8 8 8 9 10 10 10 10 10 10 11 11 12 12 11 11 11 10 11 13 11 8 8 8 7 8 8 8
13 13 13 13 13 13 13 14 14 14 15 16 15 15 14 14 15 14 14 14 15 14 15 14 13 14 17 14 19 23 27 26 27 27 27 25 26 17 12 12 12 13 13 13 13 14 14 13 10 8 8 9 9 9 9 9 8 7 7 8 9 10 10 11 11 11 11 10 10 11 12 12 12 12 12 12 11 8 6 6 6 8 7 9 8
14 13 13 13 13 15 15 15 15 19 16 14 14 14 14 14 14 14 14 14 14 14 14 14 15 14 15 14 15 13 15 21 26 23 20 18 14 10 9 10 12 13 13 12 12 13 13 12 9 7 6 7 8 8 8 8 8 8 8 8 8 7 12 10 12 11 10 10 10 10 10 10 11 11 12 12 12 7 7 7 9 9 8 10 7
12 17 22 24 20 15 14 14 15 14 14 14 13 13 14 14 13 13 13 12 13 13 14 13 13 13 13 13 13 14 17 14 13 13 12 11 11 10 9 9 10 11 12 12 12 12 12 9 7 7 7 7 8 8 9 9 9 9 9 9 8 8 10 8 9 9 9 10 10 10 10 10 11 11 12 11 8 6 8 10 9 9 9 8 7
14 13 14 22 16 16 14 14 14 14 14 13 12 12 12 12 13 13 12 12 13 12 12 13 13 12 12 11 12 11 11 13 12 13 13 13 13 12 10 10 10 10 12 13 12 10 8 6 5 6 8 7 8 8 8 9 9 10 10 10 11 10 10 10 10 11 11 10 10 11 11 11 11 13 12 11 8 10 10 9 8 7 7 7 7
12 13 14 16 17 15 14 13 13 13 13 13 12 12 12 13 12 12 11 11 12 12 13 12 12 12 12 16 24 23 14 14 14 13 13 14 12 11 10 9 10 11 12 10 7 4 4 5 5 5 5 6 7 8 9 9 10 10 10 9 9 9 9 9 9 9 10 10 11 11 10 11 13 14 12 10 12 11 8 8 7 6 6 6 7
12 13 13 13 15 13 13 13 13 14 13 13 13 11 11 11 11 10 11 11 12 12 12 12 12 11 15 27 25 27 17 12 13 13 12 10 9 10 9 7 7 9 5 2 4 6 6 7 6 6 7 8 8 8 9 10 11 11 10 10 10 9 9 9 9 10 10 10 10 12 12 12 13 12 12 12 9 9 9 8 7 7 6 6 6
13 12 12 13 13 13 13 13 13 13 13 13 12 13 12 12 11 11 11 11 11 11 11 12 11 11 12 19 20 24 13 11 9 10 9 9 9 9 6 3 4 6 5 3 3 6 7 7 7 7 8 10 12 13 13 12 11 10 10 10 10 10 10 9 9 9 9 9 10 12 14 14 13 10 10 9 9 9 8 9 8 7 7 6 5
12 12 12 12 13 12 13 12 12 13 12 15 15 13 11 10 10 10 10 10 10 10 11 11 11 11 11 13 14 12 8 9 10 10 9 8 7 6 6 5 5 5 5 5 4 4 6 6 5 4 4 4 4 5 6 8 10 11 11 11 10 11 11 11 11 12 12 12 13 13 11 12 12 11 11 11 10 10 8 8 8 7 7 6 6
10 10 11 12 12 12 12 12 12 13 14 13 11 11 12 11 11 10 11 11 11 11 10 11 11 12 13 11 10 10 10 9 9 8 8 8 8 8 7 7 6 6 6 6 5 4 4 5 5 5 5 5 5 5 6 6 7 8 10 12 13 12 12 13 12 12 13 15 15 11 11 12 10 11 11 10 10 9 8 8 7 7 7 6 6
10 10 11 11 12 12 12 12 13 12 12 12 12 11 11 10 10 10 11 11 11 11 11 11 10 10 10 10 9 9 9 8 8 7 7 7 7 7 7 8 8 8 8 8 8 8 7 6 6 6 6 6 7 7 7 7 7 7 7 6 7 7 7 8 10 11 13 15 14 9 12 14 12 11 10 10 9 8 8 7 6 6 6 6 6
10 9 10 10 11 12 12 13 12 12 12 12 11 11 11 11 10 10 10 11 11 11 10 10 10 10 10 9 9 9 9 8 7 7 7 7 7 7 7 7 7 8 8 8 8 8 8 8 7 8 8 7 8 8 7 6 7 7 7 7 8 10 9 9 10 11 12 12 15 16 15 14 12 11 11 10 9 8 8 8 7 7 5 5 4
9 9 9 10 10 10 11 11 12 14 12 12 12 12 11 11 11 10 10 10 10 10 10 10 9 9 9 9 9 8 8 8 8 7 7 7 7 7 8 7 7 7 7 9 9 8 8 8 8 8 8 8 8 8 7 7 7 7 7 7 7 8 12 13 11 11 11 12 13 13 13 12 11 10 10 10 9 8 8 7 6 5 5 4 5
8 8 9 9 9 10 10 11 12 11 12 12 12 12 12 11 11 10 10 10 10 10 10 10 10 9 9 9 9 8 8 8 8 8 8 7 8 7 7 7 7 7 7 7 7 8 8 8 8 8 8 8 8 8 8 8 9 8 8 7 11 20 18 16 12 10 12 11 12 12 11 11 11 10 9 9 8 7 7 6 6 5 5 4 4
7 8 8 9 9 9 9 9 9 10 11 11 11 11 11 11 11 11 11 10 9 9 9 9 9 9 9 9 9 9 9 9 9 8 8 8 8 7 7 8 8 7 7 7 8 9 9 9 8 8 9 8 8 9 8 8 8 8 8 11 20 20 20 19 17 14 10 9 10 10 11 11 10 9 8 7 7 7 6 6 5 5 4 4 3
8 8 8 8 8 9 9 9 10 10 10 10 10 11 11 11 11 11 10 11 10 10 10 9 9 9 9 9 9 9 9 9 9 8 8 8 8 8 8 8 8 8 8 9 9 9 8 8 8 8 9 9 9 9 8 9 8 9 14 20 20 20 17 13 12 14 14 9 9 9 9 10 10 9 7 6 6 6 6 6 5 4 4 4 3
Wind_Direction
8 6 0 3 6 7 3 2 359 1 3 7 3 1 353 345 339 330 320 315 315 306 297 288 283 278 273 264 252 244 238 235 228 231 231 232 227 226 225 221 226 233 234 235 229 227 230 232 234 232 228 228 231 225 225 220 218 224 224 225 229 224 219 226 231 218 360 35 141 148 156 152 165 171 166 165 155 179 181 174 166 156 161 186 195
2 350 353 359 6 1 358 356 357 357 3 5 2 354 347 347 344 338 333 327 325 317 314 307 301 293 284 279 271 257 242 236 233 231 232 234 232 227 227 226 229 229 229 235 230 225 228 234 235 232 225 229 231 227 224 219 216 219 221 218 224 222 215 218 229 223 186 163 122 118 145 165 165 173 177 176 171 166 179 178 167 162 172 168 195
349 339 333 353 357 351 349 351 354 356 357 359 360 353 348 343 343 339 335 330 327 322 317 317 309 301 294 285 278 272 263 253 240 233 234 234 236 232 227 228 228 231 231 231 230 227 229 231 233 230 224 226 228 229 224 221 216 217 222 218 223 223 215 213 216 226 198 186 161 158 165 175 181 179 181 182 165 164 174 186 180 176 172 184 188
347 345 342 341 341 350 352 349 351 350 352 347 350 346 344 344 343 343 341 336 335 330 327 321 314 301 288 280 274 270 267 261 257 248 242 238 236 236 233 228 231 235 235 234 231 228 229 231 233 228 224 229 230 227 225 222 218 219 222 219 221 222 215 209 216 219 200 167 186 176 174 166 183 162 169 162 165 172 181 171 170 181 178 185 195
352 348 350 348 348 351 349 349 348 346 348 340 341 341 338 339 340 340 342 339 337 335 333 334 327 318 308 295 288 282 276 272 267 262 256 250 244 241 238 235 234 236 236 237 234 231 232 233 234 227 223 228 231 229 226 222 222 221 224 222 219 218 212 208 213 213 203 189 164 168 157 162 161 158 169 168 168 167 168 180 182 182 186 185 188
344 345 344 344 341 344 345 346 343 340 337 336 333 330 328 327 326 321 324 324 324 329 331 333 327 318 312 304 300 294 288 284 279 274 268 264 259 250 245 242 242 239 239 239 237 235 236 235 235 230 227 227 231 230 226 227 225 222 224 224 219 216 214 213 208 209 211 200 167 154 171 161 164 177 178 175 169 166 170 180 182 190 186 194 199
337 337 334 334 332 334 336 337 335 332 332 329 323 320 322 323 320 320 320 317 316 316 318 315 314 312 304 300 294 291 288 286 283 277 272 267 265 263 259 253 248 246 243 242 239 239 238 240 237 231 232 232 236 235 229 228 226 228 227 225 220 215 215 213 206 205 208 196 184 176 166 176 167 167 172 175 183 179 171 166 197 202 201 196 198
327 325 321 318 318 319 323 324 325 322 324 325 323 321 322 322 319 314 313 306 305 305 304 302 299 299 295 293 292 291 285 278 275 274 270 267 265 263 262 261 259 256 255 251 246 241 239 240 238 236 236 238 237 236 229 232 231 235 231 224 219 216 217 213 205 205 204 203 189 181 174 166 170 149 137 157 179 199 199 190 191 187 195 201 203
317 317 316 313 313 315 315 314 307 307 313 318 318 320 323 323 322 320 318 313 307 303 300 296 295 295 295 296 298 295 291 282 275 270 270 266 259 258 258 256 256 259 258 256 251 248 247 245 244 242 240 239 237 237 234 229 229 233 231 220 219 216 217 212 209 206 205 201 197 178 171 175 179 165 164 177 188 192 183 185 206 197 185 190 204
310 311 309 306 304 304 301 299 295 292 298 298 300 302 305 310 313 314 313 310 307 306 306 300 295 294 295 294 296 294 286 281 272 269 267 267 267 264 261 258 256 256 258 258 256 251 249 247 244 241 237 236 237 235 234 232 231 231 230 215 217 217 215 213 210 210 205 202 202 184 186 197 188 187 178 185 182 163 170 184 194 191 168 197 196
298 300 301 302 303 301 301 296 295 292 283 282 286 289 291 293 295 297 298 298 298 297 293 294 293 293 293 290 284 281 277 274 272 274 275 272 270 266 263 261 256 255 255 257 260 258 256 252 250 242 236 236 237 234 232 231 232 234 233 226 218 214 213 215 217 208 208 211 206 195 201 202 196 188 185 177 178 186 184 183 186 175 181 176 201
278 281 287 294 296 297 294 296 296 292 288 284 283 281 282 284 287 286 288 290 290 290 290 287 284 284 283 282 279 273 271 268 271 275 274 274 272 268 265 263 258 255 254 255 258 260 258 259 256 250 239 237 235 230 230 230 230 231 231 229 227 222 217 214 214 212 210 215 212 211 208 207 197 184 184 173 180 181 187 186 190 190 185 197 203
284 284 286 288 284 285 288 290 293 293 291 287 284 284 282 284 286 288 288 290 292 289 285 284 285 286 283 280 277 277 275 264 264 267 271 273 273 271 267 262 259 257 255 255 256 257 258 257 259 251 247 240 235 233 232 232 231 231 231 231 231 229 227 224 222 219 210 216 218 220 214 207 196 196 189 180 172 181 182 184 190 195 200 202 207
297 298 299 300 298 297 296 295 294 295 295 295 295 294 296 294 292 283 285 286 282 279 277 279 280 281 282 282 282 278 274 268 267 263 261 260 264 268 265 264 261 258 257 255 255 256 255 256 258 257 250 240 237 238 233 229 227 226 230 231 232 232 231 230 228 226 221 218 219 224 220 202 206 201 186 175 177 188 181 188 185 189 195 203 188
294 290 288 287 285 284 279 276 273 273 275 276 277 278 281 288 295 299 298 297 293 287 281 279 275 275 276 277 280 281 277 269 268 270 269 264 262 265 264 263 261 259 257 254 252 252 253 253 254 257 255 243 233 232 229 226 222 223 225 227 228 228 225 226 227 226 225 228 229 232 225 204 213 203 183 191 193 191 188 188 184 185 168 102 84
287 286 283 284 284 283 281 281 281 279 278 275 268 268 271 274 278 279 280 281 282 283 280 280 280 279 276 274 276 275 275 273 271 269 270 272 271 267 264 261 260 259 258 257 252 249 249 248 250 252 252 251 236 226 224 222 219 222 225 228 229 227 229 226 221 221 224 226 229 227 226 207 201 196 182 185 188 168 122 101 108 127 141 159 172
293 290 289 292 293 291 288 287 288 289 290 287 279 276 279 280 279 276 274 274 274 272 273 275 278 278 280 277 272 272 272 271 271 271 269 267 268 263 263 263 261 260 257 257 254 251 247 243 244 248 251 251 241 217 209 216 221 221 224 227 228 229 233 227 215 215 217 213 220 216 214 201 193 181 179 175 175 161 148 150 174 162 159 178 188
302 304 303 303 302 300 299 299 300 300 300 295 289 287 288 288 285 282 276 277 274 269 272 275 273 273 272 271 267 271 274 272 271 269 268 268 262 261 261 261 259 260 262 257 254 252 249 245 240 241 246 247 239 209 212 209 220 222 222 223 227 231 235 224 212 216 217 188 191 185 195 196 193 184 182 180 171 162 169 186 179 162 185 189 184
307 310 312 311 309 309 309 308 305 303 300 297 297 296 295 293 287 285 281 278 275 276 270 267 270 270 271 271 276 274 272 273 274 272 266 263 260 255 254 255 257 257 258 259 254 251 252 247 241 239 240 243 239 222 213 205 215 219 222 222 228 232 233 213 201 204 201 201 206 192 203 198 192 187 191 187 175 176 187 186 166 178 187 185 171
311 312 307 304 303 304 302 297 296 299 299 297 297 293 292 289 285 284 281 279 278 276 276 273 272 274 273 273 271 272 275 273 272 272 270 264 255 248 248 251 250 255 255 259 260 256 252 252 243 238 238 238 233 223 215 204 207 215 217 223 228 234 224 196 196 203 202 203 202 200 201 196 192 188 188 187 184 187 183 175 174 179 181 176 179
309 306 304 302 301 304 308 309 308 304 299 295 293 289 285 283 285 284 282 279 275 273 272 273 275 275 275 273 272 271 269 270 270 268 266 260 253 244 243 241 246 251 258 256 256 260 259 254 254 240 235 235 232 228 216 211 208 212 216 224 225 230 199 192 202 194 199 204 202 199 199 197 196 193 191 188 187 186 179 171 174 176 175 175 176
308 307 307 306 305 306 304 300 297 296 295 293 290 286 284 284 282 282 281 277 274 273 273 273 274 274 274 270 270 269 267 264 264 265 264 260 255 245 238 239 236 247 250 254 253 256 255 256 257 246 232 226 233 228 220 217 216 214 218 221 221 212 202 202 195 195 201 201 198 200 197 196 196 197 194 190 184 179 174 169 152 169 178 180 179
308 306 302 299 295 295 295 295 295 295 290 287 285 285 286 283 280 278 277 274 273 273 272 271 272 272 270 265 262 262 262 263 263 263 262 259 254 248 239 234 237 238 241 247 247 249 254 256 256 248 235 227 231 229 224 220 218 221 222 221 218 212 204 200 194 199 201 201 197 200 197 195 194 196 190 187 180 170 164 143 129 150 150 110 94
306 300 297 293 292 290 289 289 288 287 288 290 288 285 284 283 282 278 276 275 276 272 270 269 267 266 266 268 264 260 261 264 263 262 261 260 257 251 245 239 233 234 232 240 244 248 250 249 248 247 234 225 227 229 227 222 222 225 228 227 222 213 204 203 198 203 198 195 198 201 200 195 191 193 188 155 158 153 134 122 131 146 133 120 111
307 302 299 298 295 293 291 289 290 288 286 286 286 286 284 282 280 276 273 271 269 269 269 268 268 267 268 267 269 269 265 265 265 269 269 267 264 256 250 244 237 233 235 237 242 246 245 248 251 248 231 221 222 225 227 229 226 225 225 227 225 215 210 202 201 195 201 201 202 197 193 195 194 187 128 135 140 120 129 124 118 113 111 103 103
305 300 300 296 294 295 294 292 285 281 282 282 279 282 285 287 285 284 280 275 273 270 271 270 268 268 268 268 268 268 269 267 265 262 259 260 262 262 259 252 242 237 235 235 237 243 248 251 253 254 242 219 220 219 222 223 226 230 230 228 222 214 208 205 196 200 207 207 200 198 196 183 178 164 153 148 147 160 151 143 138 135 134 127 112
300 299 298 299 298 297 293 291 292 290 285 282 277 279 282 282 281 282 281 279 276 274 274 273 271 271 272 272 271 271 270 269 266 263 257 255 252 253 255 251 246 244 238 240 243 248 251 252 253 251 238 223 218 220 222 224 223 223 225 223 223 217 209 204 200 201 203 199 198 193 185 167 146 141 160 167 164 156 156 151 146 147 142 143 137
299 299 299 299 296 295 291 290 291 288 287 284 284 283 280 278 280 278 280 281 281 279 278 276 275 276 279 279 279 277 273 270 265 263 261 255 256 255 248 240 237 231 238 237 238 243 245 251 252 250 236 224 225 218 220 218 216 215 215 216 218 218 212 209 207 202 200 196 191 175 159 161 167 169 161 164 163 158 156 151 150 147 144 139 138
300 299 298 296 292 292 290 289 287 287 287 286 280 277 280 281 278 277 270 271 271 274 276 274 274 276 276 276 277 278 277 276 277 285 289 291 291 293 292 283 259 242 238 240 243 242 242 245 245 242 229 222 217 216 213 213 213 213 211 210 211 212 209 197 202 201 194 182 181 174 173 165 167 162 162 160 165 161 162 150 150 144 146 153 163
302 299 297 294 293 293 293 291 291 289 287 286 287 282 273 275 277 279 281 275 274 273 272 272 272 271 271 268 266 272 274 277 281 280 277 276 275 271 270 268 266 260 252 255 253 245 238 238 239 238 230 215 208 203 202 202 208 210 210 208 207 209 205 201 198 195 183 183 178 168 168 169 166 164 164 163 148 152 161 156 152 149 151 163 160
298 295 294 292 293 294 292 290 288 286 286 286 285 286 288 278 275 278 279 281 280 279 278 277 277 276 275 276 272 271 272 273 273 272 272 271 272 274 275 276 277 276 277 279 270 250 242 238 240 235 230 215 204 206 204 208 210 211 208 203 205 205 205 195 192 184 179 175 170 164 165 164 165 163 163 157 152 150 147 144 145 151 154 152 136
294 294 293 292 293 291 287 286 286 285 286 285 285 287 287 288 284 277 280 283 284 284 283 282 281 280 279 278 279 278 277 279 280 279 277 274 271 269 268 267 266 265 264 263 263 253 233 233 235 234 222 217 216 212 207 207 209 208 204 202 205 202 193 192 181 176 171 169 163 161 161 165 163 165 164 157 156 158 155 154 156 154 140 151 156
290 291 290 290 288 287 287 286 285 285 285 284 284 284 285 287 289 292 284 284 285 286 285 284 284 284 284 284 284 283 283 282 280 278 276 274 272 269 268 266 264 261 260 255 248 251 237 227 226 227 219 214 219 214 209 210 211 208 204 203 201 195 187 178 163 169 170 166 160 160 162 164 165 162 162 158 160 159 152 147 141 138 155 152 164
285 286 288 288 287 285 283 281 282 281 280 282 283 283 283 284 287 289 294 295 291 286 285 285 286 286 285 284 285 285 286 286 287 286 286 284 282 280 277 272 264 257 252 248 241 239 238 228 223 220 220 217 215 211 211 210 208 208 205 203 190 165 163 155 162 166 161 157 160 161 160 165 166 161 159 161 162 152 156 158 145 141 152 147 146
284 283 283 286 283 283 282 281 281 280 282 281 282 283 283 284 284 287 289 291 292 292 292 289 285 285 285 286 285 285 284 284 284 284 284 281 278 277 277 278 272 256 247 241 242 239 234 228 221 219 213 211 209 208 209 208 203 200 197 183 157 149 147 156 161 160 156 157 157 163 167 164 165 164 160 161 160 159 155 141 142 146 147 145 144
287 287 289 288 285 282 282 284 284 284 283 283 282 281 284 284 284 283 284 284 286 290 290 289 292 294 293 291 290 292 292 291 290 290 289 287 283 278 273 269 274 265 251 241 237 239 239 232 222 218 212 207 202 205 208 207 198 190 181 166 161 156 153 153 155 157 160 161 163 161 160 161 162 160 158 159 161 156 140 140 144 141 142 147 153
293 290 287 287 285 283 283 281 278 277 278 280 280 281 280 280 280 282 282 284 285 286 287 290 291 288 288 285 286 289 291 292 291 291 289 287 284 279 265 266 266 269 262 248 239 234 233 226 219 211 201 202 197 199 199 196 181 169 163 163 158 156 160 160 160 156 158 159 158 157 159 160 158 162 158 156 156 139 110 111 115 137 141 147 143
292 290 289 289 290 290 289 286 284 284 284 282 282 281 281 279 279 279 282 283 283 287 289 291 291 292 295 295 296 295 296 296 299 298 294 291 288 275 272 263 261 262 267 267 257 238 231 227 211 195 192 192 196 179 177 172 161 156 151 149 147 149 154 155 161 154 155 150 151 153 151 151 156 156 155 153 149 127 126 129 143 149 149 153 150
296 293 294 295 295 293 290 289 288 287 284 283 280 279 278 278 280 281 281 280 283 284 286 287 288 289 289 292 295 297 300 296 295 296 295 290 280 271 263 262 259 258 260 262 263 257 234 213 183 179 190 191 186 174 161 155 150 146 142 136 137 143 154 150 150 151 152 153 150 151 150 153 154 155 149 136 125 108 127 137 144 145 149 156 158
302 302 297 299 298 295 293 290 289 286 283 281 279 277 277 278 279 280 280 283 284 286 285 286 287 285 287 288 287 289 288 287 283 282 284 288 290 288 282 278 275 269 261 252 248 233 208 188 175 171 185 180 167 157 149 145 145 141 140 146 154 161 162 158 156 156 157 153 152 153 151 152 150 146 143 138 126 134 134 139 143 145 147 151 151
304 303 301 300 298 298 296 294 293 290 287 282 279 280 279 279 278 278 279 280 281 282 282 281 282 282 282 283 285 285 282 283 283 280 279 275 271 276 280 281 284 286 268 231 198 168 128 105 116 125 119 129 135 132 135 134 134 139 149 153 153 155 155 154 153 152 148 149 151 150 148 145 143 135 133 139 142 135 123 128 132 138 146 149 153
304 304 304 302 302 302 300 300 297 297 296 293 284 277 278 279 279 280 281 279 279 280 282 282 280 281 282 285 287 290 291 282 278 274 275 286 297 297 292 297 308 303 283 107 114 112 106 104 108 122 130 127 129 132 133 141 151 155 154 154 155 148 148 151 150 148 148 150 150 150 147 144 142 133 134 136 130 130 134 137 139 144 145 150 148
307 304 304 304 305 304 304 302 303 304 305 306 304 294 284 281 279 281 279 278 278 278 280 282 283 283 283 286 291 297 296 284 289 301 314 317 316 315 312 320 321 325 350 31 67 104 118 126 133 143 147 154 154 159 164 163 157 147 147 151 150 149 147 142 142 143 142 144 145 142 139 139 136 130 128 121 127 132 136 140 142 142 143 142 146
309 309 308 307 307 305 305 306 309 309 308 309 308 306 294 282 282 281 278 278 278 279 279 280 282 285 286 291 293 292 298 319 323 319 321 324 325 327 331 339 352 352 1 21 37 65 100 111 121 117 116 124 119 120 127 139 144 148 147 144 145 147 148 148 151 151 149 146 146 140 134 134 132 125 124 134 134 135 138 138 139 141 141 142 145
312 314 313 313 313 313 311 312 313 312 313 313 314 315 320 319 305 296 291 288 289 290 287 285 288 290 294 301 317 332 336 331 333 341 341 342 341 343 343 348 357 359 6 19 21 35 69 92 105 106 97 76 75 89 106 120 130 139 142 143 147 153 159 160 157 151 149 146 141 118 127 127 125 132 134 134 138 136 135 140 141 143 143 147 153
317 316 316 317 317 316 317 317 318 317 317 318 316 320 322 322 326 330 328 326 324 320 319 321 324 331 337 338 338 336 335 335 339 346 351 352 350 350 347 350 1 10 14 14 17 23 34 45 63 69 77 79 81 90 97 101 102 109 116 107 120 124 126 127 133 141 148 146 138 128 129 125 124 130 127 129 129 130 129 134 134 137 139 147 151
318 318 320 318 319 318 319 320 319 320 322 320 321 322 322 325 327 329 330 331 329 329 331 330 332 336 338 340 339 336 335 336 337 342 351 358 358 355 357 358 11 25 21 21 28 35 40 48 55 66 74 81 84 85 85 87 92 95 93 103 114 122 130 134 138 143 143 139 138 131 129 130 123 125 121 122 121 126 129 134 135 139 138 147 149
316 318 318 320 322 322 323 324 323 325 323 324 324 323 323 327 328 332 335 334 335 336 336 338 339 340 340 342 343 342 340 339 338 343 355 2 6 4 4 6 17 18 29 42 43 42 45 51 55 60 66 73 77 80 78 81 77 82 86 96 108 119 125 129 133 132 132 131 133 130 130 126 124 122 125 129 130 131 129 132 132 134 143 145 158
324 325 324 325 325 326 326 326 326 325 326 327 325 325 329 329 330 331 333 337 338 340 342 344 344 342 344 344 344 345 344 342 343 349 359 5 11 14 9 11 22 37 46 44 39 40 48 50 53 58 61 63 69 76 78 78 82 77 84 81 113 122 122 117 119 114 123 125 124 124 121 120 119 119 120 120 125 126 127 129 135 142 150 154 161
322 324 322 323 324 325 324 322 323 325 327 328 328 329 330 331 332 334 336 337 340 342 346 347 349 350 349 348 350 352 352 355 359 360 2 6 12 15 14 14 20 34 42 46 50 54 55 60 55 59 62 62 68 76 79 78 83 87 89 105 112 109 111 103 97 98 104 112 115 118 120 117 114 113 114 116 117 124 126 133 136 141 143 150 160
323 322 322 323 324 324 325 330 332 333 332 332 334 335 335 335 336 335 339 341 344 345 347 347 350 351 353 353 353 355 359 4 7 8 8 14 16 23 23 30 29 36 46 51 52 53 52 58 62 61 69 72 75 75 71 74 75 85 97 99 99 100 94 87 95 95 97 96 106 109 113 114 117 114 117 116 119 120 134 138 142 144 145 158 169